JUPITER 3 (ECHOSTAR 24)

Last updated on Sun Apr 12 2026 00:02:56 GMT+0000 (Coordinated Universal Time)

1 57479U 23108A 26100.71190355 .00000000 00000+0 00000+0 0 9994 2 57479 0.0195 207.3994 0001101 170.5980 342.0064 1.00270112 9963
UTC large
Height (km)
Speed (km/s)
/
Latitude / Longitude
Inclination (degrees)
Orbital Period (minutes)
Azimuth
Elevation
Range (km)
Doppler Factor

Next 0 passes for location: London (51.5072 / 0.1276)

Sorry there are no passes over London.
JUPITER 3 (ECHOSTAR 24)